Weather History for KEVW - June, 2013

Change the Weather History Date:

Friday, June 28, 2013

  Actual Average Record
Temperature  
Mean Temperature 77 °F 62 °F  
Max Temperature 92 °F 76 °F - ()
Min Temperature 61 °F 48 °F - ()
Degree Days  
Heating Degree Days 0 4  
Month to date heating degree days 133 224  
Since 1 June heating degree days 133 224  
Since 1 July heating degree days 8024 8566  
Cooling Degree Days 12 1  
Month to date cooling degree days 34 6  
Year to date cooling degree days 34 7  
Since 1 June cooling degree days 34 6  
Growing Degree Days 26 (Base 50)    
Moisture  
Dew Point 35 °F    
Average Humidity 26    
Maximum Humidity 39    
Minimum Humidity 12    
Precipitation  
Precipitation 0.00 in 0.03 in - ()
Month to date precipitation T 1.18  
Year to date precipitation 2.01 6.11  
Sea Level Pressure  
Sea Level Pressure 30.09 in    
Wind  
Wind Speed 6 mph (NNE)    
Max Wind Speed 15 mph    
Max Gust Speed 24 mph    
Visibility 10 miles    
Events      
T = Trace of Precipitation, MM = Missing Value Source: NWS Daily Summary

Daily Weather History Graph

Daily Weather History Graph

Search for Another Location

Airport or City:

Trip Planner

Search our weather history database for the weather conditions in past years. The results will help you decide how hot, cold, wet, or windy it might be!

Date:

Astronomy

Jun. 28, 2013 Rise Set
Actual Time 5:53 AM MDT 9:01 PM MDT
Civil Twilight 5:19 AM MDT 9:35 PM MDT
Nautical Twilight 4:36 AM MDT 10:18 PM MDT
Astronomical Twilight 3:45 AM MDT 11:09 PM MDT
Moon No Moon Rise 12:09 PM MDT (6/28)
Length of Visible Light 16h 15m
Length of Day
15h 07m
Waning Gibbous, 65% of the Moon is Illuminated
Jun 28
Waning Gibbous
Jun 29
Last Quarter
Jul 8
New
Jul 15
First Quarter
Jul 22
Full

Hourly Weather History & Observations

Time (MDT) Temp. Dew Point Humidity Pressure Visibility Wind Dir Wind Speed Gust Speed Precip Events Conditions
12:53 AM 66.0 °F 37.0 °F 34% 30.11 in 10.0 mi SSE 6.9 mph - N/A   Clear
1:53 AM 64.9 °F 37.9 °F 37% 30.10 in 10.0 mi SE 9.2 mph - N/A   Clear
2:53 AM 62.1 °F 39.0 °F 43% 30.11 in 10.0 mi North 5.8 mph - N/A   Clear
3:53 AM 61.0 °F 37.0 °F 41% 30.11 in 10.0 mi North 8.1 mph - N/A   Clear
4:53 AM 64.0 °F 37.0 °F 37% 30.10 in 10.0 mi North 6.9 mph - N/A   Clear
5:53 AM 63.0 °F 37.0 °F 38% 30.11 in 10.0 mi ENE 5.8 mph - N/A   Clear
6:53 AM 64.9 °F 37.9 °F 37% 30.12 in 10.0 mi Calm Calm - N/A   Clear
7:53 AM 64.9 °F 37.9 °F 37% 30.13 in 10.0 mi South 4.6 mph - N/A   Clear
8:53 AM 73.9 °F 39.9 °F 29% 30.13 in 10.0 mi Calm Calm - N/A   Clear
9:53 AM 75.9 °F 43.0 °F 31% 30.12 in 10.0 mi North 5.8 mph - N/A   Clear
10:53 AM 82.0 °F 42.1 °F 24% 30.11 in 10.0 mi Calm Calm - N/A   Clear
11:53 AM 86.0 °F 33.1 °F 15% 30.11 in 10.0 mi NE 9.2 mph - N/A   Clear
12:53 PM 88.0 °F 27.0 °F 11% 30.10 in - NNE 12.7 mph 26.5 mph N/A   Clear
1:53 PM 90.0 °F 33.1 °F 13% 30.08 in 10.0 mi North 9.2 mph 23.0 mph N/A   Clear
2:53 PM 90.0 °F 33.1 °F 13% 30.07 in 10.0 mi North 17.3 mph 24.2 mph N/A   Clear
3:02 PM 89.6 °F 32.0 °F 13% 30.41 in 10.0 mi Variable 5.8 mph 24.2 mph N/A   Clear
3:53 PM 88.0 °F 30.9 °F 13% 30.05 in 10.0 mi NNE 6.9 mph 18.4 mph N/A   Clear
4:53 PM 91.0 °F 30.0 °F 11% 30.02 in 10.0 mi NNE 8.1 mph 21.9 mph N/A   Clear
5:53 PM 90.0 °F 32.0 °F 13% 30.01 in 10.0 mi NNW 16.1 mph - N/A   Clear
6:53 PM 88.0 °F 30.9 °F 13% 30.00 in 10.0 mi North 15.0 mph 23.0 mph N/A   Clear
7:53 PM 84.9 °F 33.1 °F 16% 30.01 in 10.0 mi North 15.0 mph - N/A   Clear
8:53 PM 78.1 °F 32.0 °F 19% 30.01 in 10.0 mi North 8.1 mph - N/A   Clear
9:53 PM 75.0 °F 34.0 °F 22% 30.03 in 10.0 mi North 6.9 mph - N/A   Clear
10:53 PM 73.9 °F 34.0 °F 23% 30.02 in 10.0 mi North 5.8 mph - N/A   Clear
11:53 PM 73.0 °F 34.0 °F 24% 30.01 in 10.0 mi NNE 6.9 mph - N/A   Clear